SCP
0 0 0 0 0 0 0 0 0 0 2 4 3 2 3 2 1 1 1 0 0 0 0 0 0 0 0 0 0 0 0 0 0 0 0 0 0 0 0 0 0 0 0
0 0 0 0 0 0 0 0 0 0 1 3 3 3 2 1 1 1 0 1 1 0 0 0 0 0 0 0 0 0 0 0 0 0 0 0 0 0 0 0 0 0 0
0 0 0 0 0 0 0 0 0 0 0 2 3 3 2 2 1 1 0 0 -0 -0 0 0 0 0 0 0 0 0 0 0 0 0 0 0 0 0 0 0 0 0 0
0 0 0 0 0 0 0 0 0 0 0 1 2 2 2 1 0 0 0 -0 -0 -0 0 0 0 1 0 0 0 0 0 0 0 0 0 0 0 0 0 0 0 0 0
0 0 0 0 0 0 0 0 0 0 0 0 0 1 0 0 0 1 0 -0 -0 -0 0 0 0 0 0 0 0 0 0 0 0 0 0 0 0 0 0 0 0 0 0
0 0 0 0 0 0 0 0 0 0 0 0 0 0 0 0 0 0 0 0 -0 -0 -0 0 0 0 0 0 0 0 0 0 0 0 0 0 0 0 0 0 0 0 0
0 0 0 0 0 0 0 0 0 0 0 0 0 0 0 0 0 0 0 0 0 0 0 0 0 0 0 0 0 0 0 0 0 0 0 0 0 0 0 0 0 0 0
0 0 0 0 0 0 0 0 0 0 0 0 0 0 0 0 0 0 0 0 0 0 0 0 0 0 0 0 0 0 0 0 0 0 0 0 0 0 0 0 0 0 0
0 0 0 0 0 0 0 0 0 0 0 0 0 0 0 0 0 0 0 0 0 0 0 0 0 0 0 0 0 0 0 0 0 0 0 0 0 0 0 0 0 0 0
0 0 0 0 0 0 0 0 0 0 0 0 0 0 0 0 0 0 0 0 0 0 0 0 0 0 0 0 0 0 0 0 0 0 0 0 0 0 0 0 0 0 0
0 -0 0 0 0 0 0 0 0 0 0 0 0 0 0 0 0 0 0 0 0 0 0 0 0 0 0 0 0 0 0 0 0 0 0 0 0 0 0 0 0 0 0
0 0 0 0 -0 -0 0 0 0 0 0 0 0 0 0 0 0 0 0 0 0 0 0 0 0 0 0 0 0 0 0 0 0 0 0 0 0 0 0 0 0 0 0
0 0 0 -0 -0 -0 -0 -0 0 0 0 0 0 0 0 0 0 0 0 0 0 0 0 0 0 0 0 0 0 0 0 0 0 0 0 0 0 0 0 0 0 0 0
0 0 0 0 0 0 -0 -0 -0 -0 0 0 0 0 0 0 0 0 0 0 0 0 0 0 0 0 0 0 0 0 0 0 0 0 0 0 0 0 0 0 0 0 0
-0 -0 -0 -0 -0 -0 -0 -0 -0 -0 -0 -0 0 0 0 0 0 0 0 0 0 0 0 0 0 0 0 0 0 0 0 0 0 0 0 0 0 0 0 0 0 0 0
-0 -0 -0 -0 -0 -0 0 0 0 0 0 0 0 0 0 0 0 0 0 0 0 0 0 0 0 0 0 0 0 0 0 0 0 0 0 0 0 0 0 0 0 0 0
-0 -0 -0 -0 -0 -0 0 0 0 0 0 0 0 0 0 0 0 0 0 0 0 0 0 0 0 0 0 0 0 -0 -0 0 0 0 0 0 0 0 0 0 0 0 0
0 0 -0 -0 -0 -0 -0 -0 0 0 0 -0 -0 -0 0 0 0 0 0 0 0 0 0 0 0 0 0 0 0 -0 0 0 0 0 0 0 0 0 0 0 0 0 0
-0 0 -0 0 0 0 0 -0 0 0 0 -0 -0 -0 0 0 0 0 0 0 0 -0 0 0 0 0 0 0 -0 0 0 0 0 0 0 -0 0 0 0 0 0 0 0
-0 -0 -0 -0 0 0 0 0 -0 0 0 -0 -0 0 0 0 -0 0 0 0 -0 0 0 0 -0 0 0 0 0 0 0 0 -0 -0 -0 -0 0 0 0 0 0 0 0
-0 -0 -0 -0 0 0 0 0 0 0 -0 0 -0 0 0 0 -0 -0 0 0 0 0 -0 -0 0 0 0 0 0 0 0 0 0 -0 0 0 0 0 0 0 0 0 -0
-0 -0 -0 0 0 0 0 0 0 0 -0 0 0 0 0 0 -0 -0 0 -0 0 0 -0 -0 -0 -0 0 0 0 -0 -0 -0 0 -0 0 0 0 0 0 0 0 -0 -0
-0 -0 -0 -0 0 0 0 0 0 0 0 0 0 0 -0 -0 -0 -0 -0 0 -0 0 0 -0 0 0 0 0 -0 -0 -0 0 0 -0 -0 -0 0 -0 -0 -0 -0 -0 -0
0 0 0 0 0 0 0 0 0 0 0 0 0 0 -0 -0 -0 0 0 -0 0 0 0 0 0 0 0 -0 -0 0 0 -0 -0 -0 -0 -0 -0 -0 -0 0 -0 0 -0
0 0 0 0 0 0 0 0 0 0 0 0 0 0 0 -0 -0 0 0 0 0 0 0 0 0 0 0 0 -0 -0 -0 -0 -0 -0 -0 0 -0 0 -0 -0 -0 -0 -0
0 0 0 0 0 0 0 0 0 0 0 0 0 0 0 0 0 0 0 0 0 0 0 0 0 0 -0 -0 -0 -0 0 0 -0 -0 -0 -0 -0 -0 -0 -0 -0 -0 -0
Wind_Speed_500mb
46 52 48 45 50 61 68 63 65 69 60 53 51 53 55 55 49 42 38 37 38 39 46 50 50 53 52 53 49 49 47 45 41 40 37 35 31 29 35 36 31 35 34
47 55 57 53 54 45 56 63 59 68 66 57 52 48 52 48 49 38 35 29 35 40 44 52 52 53 61 56 59 51 52 50 49 47 38 29 24 22 29 33 34 34 34
56 66 64 60 61 37 37 52 43 49 68 60 54 51 40 45 42 22 13 21 31 39 37 38 53 54 54 62 60 59 55 55 52 50 42 19 20 23 22 26 30 29 31
65 73 83 73 61 47 29 26 38 44 57 64 65 46 38 28 28 17 15 20 34 31 35 38 44 47 55 65 63 66 62 52 59 46 52 44 42 25 19 18 26 29 30
58 70 79 84 80 62 35 15 22 31 30 39 55 42 24 24 26 12 11 25 31 31 36 35 44 45 47 57 66 64 53 64 59 52 53 44 43 32 17 15 25 26 29
54 61 65 75 82 83 57 34 17 17 28 37 37 36 25 26 27 14 17 29 31 34 37 42 43 46 50 56 59 62 67 68 65 46 41 43 41 40 32 28 31 32 28
43 50 64 70 72 78 73 50 28 13 8 16 20 30 30 33 25 24 22 29 31 36 36 36 44 45 47 51 54 52 70 69 56 44 38 41 35 28 23 27 23 27 33
46 39 34 59 70 65 63 59 43 33 17 7 16 23 29 32 28 31 28 34 36 39 40 42 41 48 43 46 50 55 57 61 53 46 38 33 29 24 14 11 16 26 29
48 38 35 16 65 70 54 47 44 35 26 19 13 10 3 5 15 25 32 37 40 44 46 50 44 43 43 51 46 46 57 58 53 49 41 29 27 24 21 23 26 29 23
57 36 27 32 45 67 51 29 35 33 28 19 12 8 6 9 17 24 31 40 46 47 51 52 37 36 38 50 59 62 53 51 44 43 43 34 31 18 22 30 23 26 23
49 31 21 31 23 56 47 20 24 30 28 25 18 13 12 17 20 25 35 48 50 47 54 44 30 37 38 50 52 62 61 52 47 48 38 33 23 14 11 12 25 18 17
33 28 35 34 19 33 36 23 16 20 20 18 16 13 16 21 24 27 35 42 49 48 46 29 30 33 41 49 53 63 49 50 50 37 31 24 15 11 6 20 14 11 8
39 37 26 26 10 11 17 21 15 15 19 22 24 21 24 25 31 33 36 40 40 36 29 24 24 35 36 49 55 55 52 44 40 35 27 24 19 14 14 6 5 6 4
50 53 51 43 33 27 23 31 29 27 24 25 26 29 33 28 29 31 32 32 28 27 24 23 23 24 28 41 52 52 49 46 34 28 28 27 21 16 9 3 2 4 7
58 55 53 57 55 48 39 37 31 27 31 33 37 38 40 43 24 27 25 22 23 23 24 22 21 29 41 45 48 44 44 42 42 41 36 29 26 17 3 4 8 14 17
56 56 47 51 46 38 31 28 26 21 29 35 42 44 40 36 28 21 16 20 19 18 20 26 29 38 44 49 46 42 43 46 45 36 32 25 14 13 12 15 19 23 21
59 45 52 54 40 37 33 29 23 19 21 25 38 43 33 29 23 15 17 12 15 15 21 24 27 36 39 36 47 53 46 41 38 31 26 28 25 23 24 24 23 27 24
62 66 67 65 67 68 61 50 37 22 22 30 38 37 23 21 18 14 11 8 12 12 28 39 40 40 41 42 38 38 33 29 31 30 28 23 27 28 27 25 27 26 21
68 59 67 64 66 60 53 52 51 37 31 36 35 35 16 20 14 13 14 17 21 37 43 44 45 46 42 37 33 25 14 25 33 34 26 24 28 31 28 29 26 25 19
63 67 60 53 50 50 46 44 47 42 40 34 31 23 19 19 12 22 26 29 41 51 52 49 40 39 40 33 20 11 27 33 36 35 31 27 27 29 30 28 27 22 22
64 63 56 56 51 45 42 43 36 33 26 27 18 19 16 16 19 26 29 45 56 57 53 52 54 54 42 27 19 22 28 33 33 34 36 33 31 32 34 32 29 28 26
71 65 62 59 54 44 36 35 27 17 12 19 14 16 12 18 25 32 53 59 55 52 60 64 57 47 33 34 39 39 39 40 43 48 45 36 34 36 36 34 33 29 27
69 54 72 51 41 37 32 27 22 20 10 13 17 17 20 29 39 56 64 57 55 59 60 59 52 45 45 50 51 51 53 52 52 51 46 45 44 40 37 35 30 28 27
76 62 52 45 38 30 28 21 24 32 17 17 27 31 36 49 63 62 51 51 58 56 55 50 48 51 54 60 56 54 50 47 48 50 46 46 44 41 38 35 30 29 28
59 48 47 39 33 25 27 28 33 37 31 36 38 43 55 67 65 61 56 53 51 48 49 51 51 57 61 55 48 46 44 44 44 43 43 43 41 40 38 38 35 34 35
45 46 39 25 31 35 41 42 44 47 48 48 52 57 61 65 65 69 64 55 57 48 47 48 54 53 52 46 42 41 40 35 28 34 41 43 42 41 38 35 34 35 35
Wind_Direction_500mb
332 337 335 327 298 269 264 262 256 249 240 237 236 234 242 248 251 259 275 275 285 292 285 284 273 256 251 242 237 246 251 254 249 250 262 254 257 247 265 256 240 260 258
354 347 338 335 330 291 281 254 252 244 238 241 236 239 243 245 253 248 259 272 285 285 280 277 273 267 256 247 241 247 248 249 245 250 245 238 249 247 251 261 252 252 248
10 13 4 351 336 318 292 245 243 241 243 240 238 238 242 241 249 243 289 295 287 283 275 265 264 269 264 258 241 242 242 243 245 244 242 245 246 237 226 229 239 237 243
25 22 22 14 355 354 327 256 242 251 243 238 237 232 247 266 250 255 287 325 310 288 272 259 257 265 266 255 253 244 242 237 242 241 250 251 252 237 220 221 223 232 241
20 22 22 23 21 13 6 311 263 260 249 230 244 244 248 248 241 246 315 320 310 306 279 265 257 259 255 253 246 250 244 230 234 238 247 254 247 240 234 221 220 219 231
4 10 16 21 24 20 30 22 25 282 245 226 209 226 243 244 246 237 273 303 314 313 310 278 258 256 257 258 256 252 242 239 233 234 244 252 242 261 253 230 219 223 235
346 352 7 10 10 14 20 38 50 88 142 179 201 227 233 245 270 251 262 292 301 307 314 300 276 263 263 261 252 233 229 230 229 234 243 249 254 253 239 243 241 237 241
339 336 347 355 356 357 1 14 37 61 72 150 218 239 253 264 265 254 267 284 292 297 301 300 290 274 265 266 251 239 230 227 232 233 242 257 248 233 228 256 275 253 247
332 319 322 323 349 352 345 351 12 35 56 73 91 86 76 270 268 270 273 279 283 290 295 297 288 268 262 258 231 231 233 230 232 237 238 221 204 209 249 288 312 262 259
332 306 313 313 342 339 336 337 342 0 24 41 56 65 37 337 316 304 292 286 285 287 293 292 273 267 256 256 252 248 237 233 230 233 209 209 206 223 264 261 285 258 262
339 305 352 352 292 316 329 335 349 336 340 0 358 333 308 300 295 286 290 293 286 290 290 291 267 263 264 256 247 238 224 227 221 193 178 176 190 211 267 271 249 265 267
5 354 300 326 324 338 320 320 347 353 360 359 351 319 299 305 309 298 298 294 287 292 292 292 268 262 259 259 237 221 217 209 181 171 175 170 167 164 223 239 254 265 288
1 4 5 4 349 347 312 302 342 11 9 356 352 331 305 293 302 309 303 297 301 303 295 292 279 261 269 232 212 193 182 169 170 172 170 160 139 141 205 205 265 290 271
337 339 341 340 321 317 312 314 319 336 347 349 349 348 323 299 301 309 311 312 303 303 302 298 270 252 225 202 184 172 171 170 166 155 138 132 135 143 115 42 342 91 97
329 334 335 333 323 307 294 296 304 315 322 328 333 331 322 316 313 317 317 313 304 298 281 272 243 217 188 181 178 172 163 153 141 136 134 123 107 90 50 53 102 103 112
323 323 322 323 315 314 309 299 295 312 323 322 324 324 318 312 310 321 321 321 300 283 254 231 218 190 181 167 158 149 141 133 133 131 122 117 112 92 98 114 115 123 117
315 312 316 317 295 299 306 313 319 331 327 323 316 313 315 307 304 301 323 303 269 243 210 190 182 158 143 149 142 138 135 139 132 122 111 113 103 96 103 104 115 116 108
303 301 300 298 293 292 287 285 288 294 316 323 316 314 306 294 292 291 299 246 208 190 157 147 143 140 132 127 131 130 129 127 112 115 117 108 101 99 102 109 112 101 100
298 291 297 293 292 292 288 283 272 273 284 299 319 317 273 262 276 241 206 184 180 155 142 131 122 116 102 96 94 105 101 112 117 123 119 108 106 96 101 110 106 98 92
301 301 299 295 289 283 284 280 273 255 269 295 316 310 258 233 231 194 176 164 146 131 124 112 105 99 94 91 89 114 127 121 122 126 106 94 92 100 99 106 108 106 91
302 304 299 296 293 287 278 274 275 257 270 284 294 273 238 216 207 178 162 146 135 124 116 110 100 88 76 88 114 114 106 110 123 105 95 88 89 95 100 102 103 93 78
305 302 295 292 288 281 268 264 257 239 251 266 236 234 204 190 169 159 142 137 130 121 114 105 99 92 92 91 93 93 94 99 100 92 88 90 93 95 97 98 93 84 77
301 289 294 285 272 266 259 248 226 201 201 210 211 195 171 153 149 146 138 132 120 113 110 107 106 102 100 99 95 94 99 101 96 91 88 86 89 97 96 89 82 72 66
296 299 288 274 263 241 234 217 202 207 204 194 189 164 158 145 143 141 129 124 119 115 116 116 107 102 98 96 95 101 104 98 93 88 89 90 87 85 85 81 72 69 70
306 295 278 261 241 205 190 176 180 189 186 189 167 155 149 145 140 134 129 118 114 116 119 113 105 106 104 100 100 100 98 92 87 92 95 91 87 83 84 83 76 72 71
309 290 264 222 179 169 159 163 173 176 175 167 158 154 146 141 139 129 122 112 114 119 110 105 113 109 100 103 101 97 92 89 96 95 85 78 76 76 74 71 67 66 79
Wind_Speed_850mb
46 52 48 45 50 61 68 63 65 69 60 53 51 53 55 55 49 42 38 37 38 39 46 50 50 53 52 53 49 49 47 45 41 40 37 35 31 29 35 36 31 35 34
47 55 57 53 54 45 56 63 59 68 66 57 52 48 52 48 49 38 35 29 35 40 44 52 52 53 61 56 59 51 52 50 49 47 38 29 24 22 29 33 34 34 34
56 66 64 60 61 37 37 52 43 49 68 60 54 51 40 45 42 22 13 21 31 39 37 38 53 54 54 62 60 59 55 55 52 50 42 19 20 23 22 26 30 29 31
65 73 83 73 61 47 29 26 38 44 57 64 65 46 38 28 28 17 15 20 34 31 35 38 44 47 55 65 63 66 62 52 59 46 52 44 42 25 19 18 26 29 30
58 70 79 84 80 62 35 15 22 31 30 39 55 42 24 24 26 12 11 25 31 31 36 35 44 45 47 57 66 64 53 64 59 52 53 44 43 32 17 15 25 26 29
54 61 65 75 82 83 57 34 17 17 28 37 37 36 25 26 27 14 17 29 31 34 37 42 43 46 50 56 59 62 67 68 65 46 41 43 41 40 32 28 31 32 28
43 50 64 70 72 78 73 50 28 13 8 16 20 30 30 33 25 24 22 29 31 36 36 36 44 45 47 51 54 52 70 69 56 44 38 41 35 28 23 27 23 27 33
46 39 34 59 70 65 63 59 43 33 17 7 16 23 29 32 28 31 28 34 36 39 40 42 41 48 43 46 50 55 57 61 53 46 38 33 29 24 14 11 16 26 29
48 38 35 16 65 70 54 47 44 35 26 19 13 10 3 5 15 25 32 37 40 44 46 50 44 43 43 51 46 46 57 58 53 49 41 29 27 24 21 23 26 29 23
57 36 27 32 45 67 51 29 35 33 28 19 12 8 6 9 17 24 31 40 46 47 51 52 37 36 38 50 59 62 53 51 44 43 43 34 31 18 22 30 23 26 23
49 31 21 31 23 56 47 20 24 30 28 25 18 13 12 17 20 25 35 48 50 47 54 44 30 37 38 50 52 62 61 52 47 48 38 33 23 14 11 12 25 18 17
33 28 35 34 19 33 36 23 16 20 20 18 16 13 16 21 24 27 35 42 49 48 46 29 30 33 41 49 53 63 49 50 50 37 31 24 15 11 6 20 14 11 8
39 37 26 26 10 11 17 21 15 15 19 22 24 21 24 25 31 33 36 40 40 36 29 24 24 35 36 49 55 55 52 44 40 35 27 24 19 14 14 6 5 6 4
50 53 51 43 33 27 23 31 29 27 24 25 26 29 33 28 29 31 32 32 28 27 24 23 23 24 28 41 52 52 49 46 34 28 28 27 21 16 9 3 2 4 7
58 55 53 57 55 48 39 37 31 27 31 33 37 38 40 43 24 27 25 22 23 23 24 22 21 29 41 45 48 44 44 42 42 41 36 29 26 17 3 4 8 14 17
56 56 47 51 46 38 31 28 26 21 29 35 42 44 40 36 28 21 16 20 19 18 20 26 29 38 44 49 46 42 43 46 45 36 32 25 14 13 12 15 19 23 21
59 45 52 54 40 37 33 29 23 19 21 25 38 43 33 29 23 15 17 12 15 15 21 24 27 36 39 36 47 53 46 41 38 31 26 28 25 23 24 24 23 27 24
62 66 67 65 67 68 61 50 37 22 22 30 38 37 23 21 18 14 11 8 12 12 28 39 40 40 41 42 38 38 33 29 31 30 28 23 27 28 27 25 27 26 21
68 59 67 64 66 60 53 52 51 37 31 36 35 35 16 20 14 13 14 17 21 37 43 44 45 46 42 37 33 25 14 25 33 34 26 24 28 31 28 29 26 25 19
63 67 60 53 50 50 46 44 47 42 40 34 31 23 19 19 12 22 26 29 41 51 52 49 40 39 40 33 20 11 27 33 36 35 31 27 27 29 30 28 27 22 22
64 63 56 56 51 45 42 43 36 33 26 27 18 19 16 16 19 26 29 45 56 57 53 52 54 54 42 27 19 22 28 33 33 34 36 33 31 32 34 32 29 28 26
71 65 62 59 54 44 36 35 27 17 12 19 14 16 12 18 25 32 53 59 55 52 60 64 57 47 33 34 39 39 39 40 43 48 45 36 34 36 36 34 33 29 27
69 54 72 51 41 37 32 27 22 20 10 13 17 17 20 29 39 56 64 57 55 59 60 59 52 45 45 50 51 51 53 52 52 51 46 45 44 40 37 35 30 28 27
76 62 52 45 38 30 28 21 24 32 17 17 27 31 36 49 63 62 51 51 58 56 55 50 48 51 54 60 56 54 50 47 48 50 46 46 44 41 38 35 30 29 28
59 48 47 39 33 25 27 28 33 37 31 36 38 43 55 67 65 61 56 53 51 48 49 51 51 57 61 55 48 46 44 44 44 43 43 43 41 40 38 38 35 34 35
45 46 39 25 31 35 41 42 44 47 48 48 52 57 61 65 65 69 64 55 57 48 47 48 54 53 52 46 42 41 40 35 28 34 41 43 42 41 38 35 34 35 35
Wind_Direction_850mb
332 337 335 327 298 269 264 262 256 249 240 237 236 234 242 248 251 259 275 275 285 292 285 284 273 256 251 242 237 246 251 254 249 250 262 254 257 247 265 256 240 260 258
354 347 338 335 330 291 281 254 252 244 238 241 236 239 243 245 253 248 259 272 285 285 280 277 273 267 256 247 241 247 248 249 245 250 245 238 249 247 251 261 252 252 248
10 13 4 351 336 318 292 245 243 241 243 240 238 238 242 241 249 243 289 295 287 283 275 265 264 269 264 258 241 242 242 243 245 244 242 245 246 237 226 229 239 237 243
25 22 22 14 355 354 327 256 242 251 243 238 237 232 247 266 250 255 287 325 310 288 272 259 257 265 266 255 253 244 242 237 242 241 250 251 252 237 220 221 223 232 241
20 22 22 23 21 13 6 311 263 260 249 230 244 244 248 248 241 246 315 320 310 306 279 265 257 259 255 253 246 250 244 230 234 238 247 254 247 240 234 221 220 219 231
4 10 16 21 24 20 30 22 25 282 245 226 209 226 243 244 246 237 273 303 314 313 310 278 258 256 257 258 256 252 242 239 233 234 244 252 242 261 253 230 219 223 235
346 352 7 10 10 14 20 38 50 88 142 179 201 227 233 245 270 251 262 292 301 307 314 300 276 263 263 261 252 233 229 230 229 234 243 249 254 253 239 243 241 237 241
339 336 347 355 356 357 1 14 37 61 72 150 218 239 253 264 265 254 267 284 292 297 301 300 290 274 265 266 251 239 230 227 232 233 242 257 248 233 228 256 275 253 247
332 319 322 323 349 352 345 351 12 35 56 73 91 86 76 270 268 270 273 279 283 290 295 297 288 268 262 258 231 231 233 230 232 237 238 221 204 209 249 288 312 262 259
332 306 313 313 342 339 336 337 342 0 24 41 56 65 37 337 316 304 292 286 285 287 293 292 273 267 256 256 252 248 237 233 230 233 209 209 206 223 264 261 285 258 262
339 305 352 352 292 316 329 335 349 336 340 0 358 333 308 300 295 286 290 293 286 290 290 291 267 263 264 256 247 238 224 227 221 193 178 176 190 211 267 271 249 265 267
5 354 300 326 324 338 320 320 347 353 360 359 351 319 299 305 309 298 298 294 287 292 292 292 268 262 259 259 237 221 217 209 181 171 175 170 167 164 223 239 254 265 288
1 4 5 4 349 347 312 302 342 11 9 356 352 331 305 293 302 309 303 297 301 303 295 292 279 261 269 232 212 193 182 169 170 172 170 160 139 141 205 205 265 290 271
337 339 341 340 321 317 312 314 319 336 347 349 349 348 323 299 301 309 311 312 303 303 302 298 270 252 225 202 184 172 171 170 166 155 138 132 135 143 115 42 342 91 97
329 334 335 333 323 307 294 296 304 315 322 328 333 331 322 316 313 317 317 313 304 298 281 272 243 217 188 181 178 172 163 153 141 136 134 123 107 90 50 53 102 103 112
323 323 322 323 315 314 309 299 295 312 323 322 324 324 318 312 310 321 321 321 300 283 254 231 218 190 181 167 158 149 141 133 133 131 122 117 112 92 98 114 115 123 117
315 312 316 317 295 299 306 313 319 331 327 323 316 313 315 307 304 301 323 303 269 243 210 190 182 158 143 149 142 138 135 139 132 122 111 113 103 96 103 104 115 116 108
303 301 300 298 293 292 287 285 288 294 316 323 316 314 306 294 292 291 299 246 208 190 157 147 143 140 132 127 131 130 129 127 112 115 117 108 101 99 102 109 112 101 100
298 291 297 293 292 292 288 283 272 273 284 299 319 317 273 262 276 241 206 184 180 155 142 131 122 116 102 96 94 105 101 112 117 123 119 108 106 96 101 110 106 98 92
301 301 299 295 289 283 284 280 273 255 269 295 316 310 258 233 231 194 176 164 146 131 124 112 105 99 94 91 89 114 127 121 122 126 106 94 92 100 99 106 108 106 91
302 304 299 296 293 287 278 274 275 257 270 284 294 273 238 216 207 178 162 146 135 124 116 110 100 88 76 88 114 114 106 110 123 105 95 88 89 95 100 102 103 93 78
305 302 295 292 288 281 268 264 257 239 251 266 236 234 204 190 169 159 142 137 130 121 114 105 99 92 92 91 93 93 94 99 100 92 88 90 93 95 97 98 93 84 77
301 289 294 285 272 266 259 248 226 201 201 210 211 195 171 153 149 146 138 132 120 113 110 107 106 102 100 99 95 94 99 101 96 91 88 86 89 97 96 89 82 72 66
296 299 288 274 263 241 234 217 202 207 204 194 189 164 158 145 143 141 129 124 119 115 116 116 107 102 98 96 95 101 104 98 93 88 89 90 87 85 85 81 72 69 70
306 295 278 261 241 205 190 176 180 189 186 189 167 155 149 145 140 134 129 118 114 116 119 113 105 106 104 100 100 100 98 92 87 92 95 91 87 83 84 83 76 72 71
309 290 264 222 179 169 159 163 173 176 175 167 158 154 146 141 139 129 122 112 114 119 110 105 113 109 100 103 101 97 92 89 96 95 85 78 76 76 74 71 67 66 79